Weather in Nerungri

Russia / Sakha (Yakutia) Republic     56°39′35″N   124°43′13″E
temp.,
°C
wind,
m/s
gust,
m/s
humid.,
%
clouds,
%
prec.,
mm/h
press.,
hPa
HPBL,
m
26 january, wed
wed2600:00−22nnw279696 0.1 1032260
03:00−23nnw279695 0.1 1033241
06:00−28nnw1110098 0.0 103610
09:00−27nnw1110098 0.1 103615
12:00−20nnw379098 0.0 1033543
15:00−20nnw3992100 0.1 1033653
18:00−27nnw11100100 0.0 10369
21:00−28nnw11100100 0.1 10379
27 january, thu
thu2700:00−29n11100100 0.1 10379
03:00−26nnw11100100 0.2 103610
06:00−24nnw1899100 0.2 1034360
09:00−21nnw41193100 0.4 1032683
12:00−19nnw51290100 0.2 1031824
15:00−18nnw51190100 0.3 10291033
18:00−19nnw51293100 0.3 10291021
21:00−20nnw51195100 0.7 1030940
28 january, fri
fri2800:00−20nnw51294100 0.4 1030930
03:00−20nnw61294100 0.7 1029966
06:00−20nnw61393100 0.3 1028980
09:00−20nnw61491100 0.4 1028977
12:00−19nnw71491100 0.1 1026956
15:00−19nnw61393100 0.5 10251094
18:00−20nnw51191100 0.3 1026979
21:00−20nnw61291100 0.4 1027911
29 january, sat
sat2900:00−20nnw61390100 0.1 1027893
03:00−20nnw61390100 0.1 1028823
06:00−21nnw61490100 0.1 1028751
09:00−22nnw6149099 0.1 1029668
12:00−20nnw61390100 0.0 1029720
15:00−19nnw51291100 0.1 1028750
18:00−19nnw51391100 0.1 1029756
21:00−20nnw51392100 0.1 1029741
30 january, sun
sun3000:00−20nnw5129199 0.1 1030683
03:00−21nnw51293100 0.1 1031631
06:00−21nnw51192100 0.1 1032691
09:00−21nnw51192100 0.2 1033694
12:00−21nnw51191100 0.1 1033725
15:00−21nnw51092100 0.1 1034722
18:00−22nnw41093100 0.1 1035527
21:00−22nnw41094100 0.1 1036506